sat.trackr.live / text

‹ back to catalog

STARLINK-34772

NORAD 65020 · 2025-161F

PAYLOAD ACTIVE UNKNOWN

§ Identity

Operator
Country
US
Launch date
2025-07-30
Launch site
AFWTR
Launch vehicle
Mass (kg)
RCS (m²)

Purposes: comms

External: N2YO · Heavens-Above · Gunter

§ Orbital elements

Epoch: 2026-05-25T00:00:02.000160Z

Period
93.85 min
Inclination
53.1584°
Eccentricity
0.0000857
Mean motion
15.34391551 rev/d
Perigee alt
462.1 km
Apogee alt
463.3 km
Semi-major
6,840.9 km
B*
2.1878e-4
RAAN
299.5069°
Arg perigee
75.7020°
Mean anomaly
36.1163°
Rev number
588

§ Raw data

STARLINK-347721 65020U 25161F   26145.00002315  .00007021  00000+0  21878-3 0  99952 65020  53.1584 299.5069 0000857  75.7020  36.1163 15.34391551  5880

JSON: /api/v1/satellites/65020 · /tle

For live sub-satellite position, see the globe view (requires WebGL).

§ Visibility from observer

Set your observer location to see the next 7 days of passes ≥ 10°. The values pass through the URL so the page stays shareable.

No JS? Fill the form by hand. The geolocation button needs JavaScript.